| time (UTC) | temp F | wind direction | speed MPH | gust MPH | rain 1hr in | rain 24hr in | rain mn in | humidity % | barometer mb |
| 20260503052710 | 44 | 323 | 12.0 | 14.0 | 0.00 | 0.00 | 0.00 | 87 | 1007.5 |
| 20260503050710 | 45 | 317 | 11.0 | 13.0 | 0.00 | 0.00 | 0.00 | 81 | 1007.4 |
| 20260503044710 | 45 | 323 | 11.0 | 13.0 | 0.00 | 0.00 | 0.00 | 80 | 1007.0 |
| 20260503042710 | 45 | 311 | 12.0 | 15.0 | 0.00 | 0.00 | 0.00 | 82 | 1007.2 |
| 20260503040710 | 45 | 310 | 12.0 | 15.0 | 0.00 | 0.00 | 0.00 | 81 | 1006.7 |
| 20260503034710 | 46 | 306 | 16.0 | 18.0 | 0.00 | 0.00 | 0.00 | 80 | 1006.8 |
| 20260503032710 | 45 | 310 | 13.0 | 17.0 | 0.00 | 0.00 | 0.00 | 81 | 1006.3 |
| 20260503030711 | 45 | 317 | 16.0 | 19.0 | 0.00 | 0.00 | 0.00 | 83 | 1006.3 |
| 20260503024711 | 44 | 309 | 15.0 | 17.0 | 0.00 | 0.00 | 0.00 | 87 | 1006.2 |
| 20260503022710 | 44 | 311 | 16.0 | 18.0 | 0.00 | 0.00 | 0.00 | 86 | 1005.8 |
| 20260503020710 | 44 | 313 | 12.0 | 13.0 | 0.00 | 0.00 | 0.00 | 84 | 1005.9 |
| 20260503014710 | 44 | 295 | 13.0 | 15.0 | 0.00 | 0.00 | 0.00 | 84 | 1005.9 |
| 20260503012710 | 45 | 280 | 13.0 | 16.0 | 0.00 | 0.00 | 0.00 | 83 | 1005.8 |
| 20260503010710 | 45 | 273 | 14.0 | 17.0 | 0.00 | 0.00 | 0.00 | 82 | 1005.8 |
| 20260503004711 | 45 | 275 | 14.0 | 18.0 | 0.00 | 0.00 | 0.00 | 82 | 1005.8 |
| 20260503002710 | 44 | 256 | 12.0 | 18.0 | 0.00 | 0.00 | 0.00 | 84 | 1005.9 |
| 20260503000710 | 45 | 249 | 13.0 | 16.0 | 0.00 | 0.00 | 0.00 | 82 | 1005.9 |
| 20260502234710 | 45 | 241 | 13.0 | 17.0 | 0.00 | 0.00 | 0.00 | 84 | 1005.9 |
| 20260502232710 | 45 | 240 | 12.0 | 16.0 | 0.00 | 0.00 | 0.00 | 84 | 1006.1 |
| 20260502230709 | 45 | 228 | 15.0 | 20.0 | 0.00 | 0.00 | 0.00 | 82 | 1006.2 |
| 20260502224710 | 45 | 223 | 17.0 | 23.0 | 0.00 | 0.00 | 0.00 | 83 | 1006.3 |
| 20260502222710 | 45 | 221 | 17.0 | 23.0 | 0.00 | 0.00 | 0.00 | 84 | 1006.4 |
| 20260502220711 | 45 | 214 | 17.0 | 20.0 | 0.00 | 0.00 | 0.00 | 84 | 1006.6 |
| 20260502214709 | 45 | 222 | 18.0 | 23.0 | 0.00 | 0.00 | 0.00 | 83 | 1006.9 |
| 20260502212709 | 45 | 217 | 15.0 | 19.0 | 0.00 | 0.00 | 0.00 | 83 | 1007.1 |
| 20260502210710 | 45 | 216 | 15.0 | 20.0 | 0.00 | 0.00 | 0.00 | 83 | 1007.1 |
| 20260502204710 | 45 | 213 | 18.0 | 21.0 | 0.00 | 0.00 | 0.00 | 82 | 1007.3 |
| 20260502202709 | 45 | 209 | 17.0 | 20.0 | 0.00 | 0.00 | 0.00 | 83 | 1007.4 |
| 20260502200710 | 45 | 207 | 17.0 | 20.0 | 0.00 | 0.00 | 0.00 | 82 | 1007.6 |
| 20260502194709 | 45 | 206 | 17.0 | 22.0 | 0.00 | 0.00 | 0.00 | 81 | 1007.8 |
| 20260502192709 | 46 | 207 | 18.0 | 22.0 | 0.00 | 0.00 | 0.00 | 80 | 1008.0 |
| 20260502190708 | 46 | 207 | 18.0 | 25.0 | 0.00 | 0.00 | 0.00 | 78 | 1008.1 |
| 20260502184708 | 46 | 204 | 19.0 | 24.0 | 0.00 | 0.00 | 0.00 | 77 | 1008.2 |
| 20260502182709 | 46 | 206 | 16.0 | 21.0 | 0.00 | 0.00 | 0.00 | 78 | 1008.3 |
| 20260502180708 | 46 | 208 | 17.0 | 21.0 | 0.00 | 0.00 | 0.00 | 78 | 1008.5 |
| 20260502162708 | 49 | 222 | 19.0 | 24.0 | 0.00 | 0.00 | 0.00 | 69 | 1009.5 |
| 20260502160708 | 50 | 224 | 20.0 | 27.0 | 0.00 | 0.00 | 0.00 | 67 | 1009.7 |
| 20260502150708 | 50 | 226 | 22.0 | 31.0 | 0.00 | 0.00 | 0.00 | 65 | 1010.6 |
| 20260502130708 | 52 | 235 | 15.0 | 24.0 | 0.00 | 0.00 | 0.00 | 63 | 1011.6 |
| 20260502122707 | 50 | 222 | 18.0 | 25.0 | 0.00 | 0.00 | 0.00 | 66 | 1011.6 |
| 20260502120708 | 50 | 224 | 23.0 | 28.0 | 0.00 | 0.00 | 0.00 | 66 | 1011.8 |
| 20260502114708 | 52 | 236 | 19.0 | 29.0 | 0.00 | 0.00 | 0.00 | 60 | 1011.8 |
| 20260502112707 | 51 | 238 | 20.0 | 28.0 | 0.00 | 0.00 | 0.00 | 64 | 1012.0 |
| 20260502110707 | 50 | 240 | 19.0 | 26.0 | 0.00 | 0.00 | 0.00 | 64 | 1011.9 |
| 20260502104707 | 50 | 239 | 21.0 | 29.0 | 0.00 | 0.00 | 0.00 | 66 | 1012.0 |
| 20260502102707 | 50 | 242 | 24.0 | 31.0 | 0.00 | 0.00 | 0.00 | 63 | 1012.0 |
| 20260502100707 | 51 | 247 | 22.0 | 27.0 | 0.00 | 0.00 | 0.00 | 61 | 1011.9 |
| 20260502090707 | 50 | 237 | 15.0 | 22.0 | 0.00 | 0.00 | 0.00 | 65 | 1012.2 |
| 20260502070706 | 50 | 261 | 19.0 | 23.0 | 0.00 | 0.00 | 0.00 | 62 | 1012.6 |
| 20260502064706 | 49 | 261 | 17.0 | 23.0 | 0.00 | 0.00 | 0.00 | 66 | 1012.7 |
| 20260502062706 | 49 | 260 | 16.0 | 22.0 | 0.00 | 0.00 | 0.00 | 64 | 1012.7 |
| 20260502060706 | 49 | 260 | 15.0 | 20.0 | 0.00 | 0.00 | 0.00 | 65 | 1012.6 |
| 20260502054706 | 48 | 258 | 17.0 | 22.0 | 0.00 | 0.00 | 0.00 | 67 | 1012.7 |